EW7704 Weather Reports


Display with metric or nautical units.
time (UTC)temp
F
wind
direction
speed
MPH
gust
MPH
rain 1hr
in
rain 24hr
in
rain mn
in
humidity
%
barometer
mb
20260904141551 68 234 0.0 3.0 0.00 0.00 0.00 56 1005.8
20260904141051 66 234 0.0 3.0 0.00 0.00 0.00 61 1005.8
20260904140551 66 345 0.0 2.0 0.00 0.00 0.00 65 1005.8
20260904140049 66 252 0.0 2.0 0.00 0.00 0.00 63 1005.7
20260904135548 66 215 0.0 2.0 0.00 0.00 0.00 58 1005.7
20260904135050 65 159 0.0 2.0 0.00 0.00 0.00 59 1005.6
20260904134548 64 88 0.0 1.0 0.00 0.00 0.00 60 1005.5
20260904134046 63 88 0.0 1.0 0.00 0.00 0.00 64 1005.5
20260904133546 62 88 0.0 1.0 0.00 0.00 0.00 64 1005.3
20260904133045 60 85 0.0 1.0 0.00 0.00 0.00 66 1005.2
20260904132545 59 86 0.0 2.0 0.00 0.00 0.00 67 1005.2
20260904132044 59 87 0.0 2.0 0.00 0.00 0.00 69 1005.2
20260904131544 58 87 0.0 1.0 0.00 0.00 0.00 70 1005.1
20260904131046 57 89 0.0 0.0 0.00 0.00 0.00 72 1005.0
20260904130543 56 86 0.0 0.0 0.00 0.00 0.00 75 1005.0
20260904130043 55 83 0.0 0.0 0.00 0.00 0.00 73 1004.9
20260904125543 55 83 0.0 0.0 0.00 0.00 0.00 74 1004.9
20260904125045 55 360 0.0 0.0 0.00 0.00 0.00 74 1004.9
20260904124542 54 360 0.0 0.0 0.00 0.00 0.00 74 1004.9
20260904124041 54 360 0.0 1.0 0.00 0.00 0.00 74 1004.8
20260904123540 54 360 0.0 2.0 0.00 0.00 0.00 72 1004.7
20260904123040 56 360 0.0 2.0 0.00 0.00 0.00 69 1004.8
20260904122540 56 360 0.0 2.0 0.00 0.00 0.00 72 1004.7
20260904122040 55 360 0.0 2.0 0.00 0.00 0.00 73 1004.7
20260904121540 55 360 0.0 2.0 0.00 0.00 0.00 74 1004.6
20260904121038 54 360 0.0 1.0 0.00 0.00 0.00 75 1004.5
20260904120541 54 360 0.0 1.0 0.00 0.00 0.00 77 1004.4
20260904120038 53 360 0.0 1.0 0.00 0.00 0.00 74 1004.4
20260904115537 55 360 0.0 1.0 0.00 0.00 0.00 73 1004.3
20260904115036 55 360 0.0 0.0 0.00 0.00 0.00 74 1004.3
20260904114534 55 360 0.0 0.0 0.00 0.00 0.00 74 1004.2
20260904114035 56 360 0.0 0.0 0.00 0.00 0.00 74 1004.1
20260904113534 56 360 0.0 1.0 0.00 0.00 0.00 72 1004.1
20260904113034 56 360 0.0 1.0 0.00 0.00 0.00 73 1004.1
20260904112533 55 360 0.0 1.0 0.00 0.00 0.00 74 1004.1
20260904112032 55 360 0.0 1.0 0.00 0.00 0.00 74 1004.1
20260904111531 55 360 0.0 1.0 0.00 0.00 0.00 72 1004.0
20260904111030 56 360 0.0 0.0 0.00 0.00 0.00 72 1003.9
20260904110530 56 360 0.0 1.0 0.00 0.00 0.00 72 1003.9
20260904110030 56 360 0.0 2.0 0.00 0.00 0.00 71 1004.0
20260904105530 56 360 0.0 2.0 0.00 0.00 0.00 72 1003.9
20260904105030 56 360 0.0 1.0 0.00 0.00 0.00 74 1003.9
20260904104528 56 360 0.0 1.0 0.00 0.00 0.00 73 1003.8
20260904104026 56 360 0.0 1.0 0.00 0.00 0.00 72 1003.8
20260904103526 57 360 0.0 0.0 0.00 0.00 0.00 71 1003.8
20260904103026 57 360 0.0 0.0 0.00 0.00 0.00 71 1003.7
20260904102526 57 360 0.0 0.0 0.00 0.00 0.00 70 1003.6
20260904102025 57 360 0.0 0.0 0.00 0.00 0.00 69 1003.7
20260904101526 57 360 0.0 1.0 0.00 0.00 0.00 69 1003.6
20260904101026 57 360 0.0 1.0 0.00 0.00 0.00 70 1003.6
20260904100525 57 360 0.0 0.0 0.00 0.00 0.00 70 1003.7
20260904100028 57 360 0.0 0.0 0.00 0.00 0.00 71 1003.8
20260904095525 56 360 0.0 0.0 0.00 0.00 0.00 71 1003.7
20260904095023 57 360 0.0 0.0 0.00 0.00 0.00 69 1003.5
20260904094521 58 360 0.0 1.0 0.00 0.00 0.00 67 1003.5
20260904094020 59 205 0.0 1.0 0.00 0.00 0.00 65 1003.4
20260904093524 60 360 0.0 1.0 0.00 0.00 0.00 64 1003.3
20260904093048 59 360 0.0 2.0 0.00 0.00 0.00 66 1003.3
20260904092519 59 360 0.0 2.0 0.00 0.00 0.00 67 1003.4
20260904092021 59 360 0.0 1.0 0.00 0.00 0.00 66 1003.3
20260904091519 59 360 0.0 1.0 0.00 0.00 0.00 65 1003.3
20260904091019 59 360 0.0 0.0 0.00 0.00 0.00 66 1003.4
20260904090520 60 360 0.0 0.0 0.00 0.00 0.00 66 1003.3
20260904090016 60 360 0.0 0.0 0.00 0.00 0.00 65 1003.3
20260904085518 60 360 0.0 0.0 0.00 0.00 0.00 64 1003.2
20260904085015 61 360 0.0 0.0 0.00 0.00 0.00 64 1003.3
20260904084514 61 360 0.0 0.0 0.00 0.00 0.00 63 1003.3
20260904084013 61 360 0.0 0.0 0.00 0.00 0.00 63 1003.2
20260904083512 61 241 0.0 1.0 0.00 0.00 0.00 62 1003.3
20260904083011 62 240 0.0 1.0 0.00 0.00 0.00 59 1003.2
20260904082512 63 240 0.0 2.0 0.00 0.00 0.00 58 1003.2
20260904082011 63 240 0.0 2.0 0.00 0.00 0.00 58 1003.2
20260904081511 62 240 0.0 2.0 0.00 0.00 0.00 60 1003.2
20260904081011 62 240 0.0 1.0 0.00 0.00 0.00 62 1003.2
20260904080510 63 240 0.0 1.0 0.00 0.00 0.00 60 1003.3
20260904080008 63 240 0.0 0.0 0.00 0.00 0.00 57 1003.2
20260904075508 64 240 0.0 1.0 0.00 0.00 0.00 57 1003.2
20260904075006 64 240 0.0 2.0 0.00 0.00 0.00 55 1003.2
20260904074504 64 240 0.0 3.0 0.00 0.00 0.00 54 1003.2
20260904074004 64 180 0.0 3.0 0.00 0.00 0.00 53 1003.2
20260904073504 65 117 1.0 2.0 0.00 0.00 0.00 52 1003.2
20260904073010 66 257 0.0 2.0 0.00 0.00 0.00 54 1003.2
20260904072502 66 259 0.0 1.0 0.00 0.00 0.00 51 1003.2
20260904072003 66 259 0.0 2.0 0.00 0.00 0.00 51 1003.0
20260904071502 66 259 0.0 4.0 0.00 0.00 0.00 49 1003.2
20260904071002 66 110 2.0 4.0 0.00 0.00 0.00 48 1003.4
20260904070502 66 261 0.0 2.0 0.00 0.00 0.00 48 1003.3
20260904070004 66 261 0.0 3.0 0.00 0.00 0.00 48 1003.5
20260904065503 67 126 1.0 3.0 0.00 0.00 0.00 49 1003.5
20260904065100 67 126 0.0 3.0 0.00 0.00 0.00 48 1003.4
20260904064558 67 263 0.0 3.0 0.00 0.00 0.00 48 1003.1
20260904064058 66 215 0.0 2.0 0.00 0.00 0.00 49 1003.2
20260904063558 66 215 0.0 4.0 0.00 0.00 0.00 49 1003.2
20260904063058 66 144 0.0 4.0 0.00 0.00 0.00 49 1003.3
20260904062557 66 126 1.0 3.0 0.00 0.00 0.00 49 1003.4
20260904062056 66 194 0.0 3.0 0.00 0.00 0.00 50 1003.4
20260904061601 65 215 0.0 3.0 0.00 0.00 0.00 51 1003.4
20260904061054 65 226 0.0 2.0 0.00 0.00 0.00 51 1003.2
20260904060554 65 202 0.0 2.0 0.00 0.00 0.00 52 1003.3
20260904060052 64 146 0.0 3.0 0.00 0.00 0.00 54 1003.2
20260904055554 64 206 0.0 3.0 0.00 0.00 0.00 55 1003.2
20260904055052 64 200 0.0 2.0 0.00 0.00 0.00 56 1003.2
20260904054557 64 200 0.0 3.0 0.00 0.00 0.00 57 1003.0
20260904054052 64 120 0.0 9.0 0.00 0.00 0.00 56 1003.0
20260904053551 63 106 4.0 8.0 0.00 0.00 0.00 57 1002.9
20260904053126 64 241 0.0 2.0 0.00 0.00 0.00 54 1002.6
20260904052551 67 246 0.0 3.0 0.00 0.00 0.00 52 1002.5
20260904052053 67 246 0.0 3.0 0.00 0.00 0.00 52 1002.4
20260904051558 67 242 0.0 3.0 0.00 0.00 0.00 52 1002.3
20260904051050 67 251 1.0 2.0 0.00 0.00 0.00 53 1002.4
20260904050550 67 244 0.0 1.0 0.00 0.00 0.00 53 1002.3
20260904050051 67 244 0.0 2.0 0.00 0.00 0.00 51 1002.3
20260904045550 68 244 0.0 2.0 0.00 0.00 0.00 49 1002.3
20260904045050 68 252 0.0 1.0 0.00 0.00 0.00 47 1002.3
20260904044552 69 252 0.0 2.0 0.00 0.00 0.00 46 1002.3
20260904044050 69 253 0.0 3.0 0.00 0.00 0.00 45 1002.2
20260904043548 69 252 0.0 3.0 0.00 0.00 0.00 45 1002.2
20260904043051 69 246 1.0 2.0 0.00 0.00 0.00 46 1002.2
20260904042550 69 243 0.0 1.0 0.00 0.00 0.00 46 1002.1
20260904042049 70 261 0.0 1.0 0.00 0.00 0.00 44 1002.2
20260904041558 71 200 0.0 3.0 0.00 0.00 0.00 43 1002.3
20260904041048 72 190 1.0 3.0 0.00 0.00 0.00 42 1002.2
20260904040548 72 360 0.0 2.0 0.00 0.00 0.00 42 1002.2
20260904040048 72 360 1.0 4.0 0.00 0.00 0.00 42 1002.2
20260904035548 72 360 1.0 4.0 0.00 0.00 0.00 41 1002.2
20260904035047 72 360 1.0 3.0 0.00 0.00 0.00 42 1002.3
20260904034547 72 360 0.0 3.0 0.00 0.00 0.00 42 1002.3
20260904034045 72 360 1.0 3.0 0.00 0.00 0.00 42 1002.3
20260904033547 72 360 1.0 3.0 0.00 0.00 0.00 42 1002.3
20260904033100 72 360 0.0 4.0 0.00 0.00 0.00 42 1002.2
20260904032545 72 360 1.0 5.0 0.00 0.00 0.00 42 1002.2
20260904032045 72 360 1.0 5.0 0.00 0.00 0.00 42 1002.1
20260904031545 72 360 1.0 4.0 0.00 0.00 0.00 43 1002.1
20260904031047 73 360 0.0 3.0 0.00 0.00 0.00 43 1002.1
20260904030544 73 360 0.0 3.0 0.00 0.00 0.00 43 1002.2
20260904030045 73 360 0.0 3.0 0.00 0.00 0.00 42 1002.3
20260904025544 74 360 0.0 2.0 0.00 0.00 0.00 41 1002.2
20260904025044 74 24 0.0 2.0 0.00 0.00 0.00 41 1002.3
20260904024545 74 325 0.0 2.0 0.00 0.00 0.00 40 1002.3
20260904024044 75 325 0.0 3.0 0.00 0.00 0.00 39 1002.3
20260904023544 75 14 1.0 3.0 0.00 0.00 0.00 38 1002.2
20260904023043 76 342 0.0 2.0 0.00 0.00 0.00 37 1002.1
20260904022543 76 342 0.0 3.0 0.00 0.00 0.00 36 1002.1
20260904022044 77 347 0.0 3.0 0.00 0.00 0.00 36 1002.1
20260904021543 77 343 0.0 2.0 0.00 0.00 0.00 36 1002.1
20260904021043 78 344 1.0 3.0 0.00 0.00 0.00 35 1002.0
20260904020543 78 347 1.0 3.0 0.00 0.00 0.00 34 1002.0
20260904020051 79 342 1.0 3.0 0.00 0.00 0.00 33 1002.0
20260904015542 79 22 0.0 3.0 0.00 0.00 0.00 32 1002.0
20260904015042 80 38 1.0 3.0 0.00 0.00 0.00 32 1001.9
20260904014608 80 53 1.0 4.0 0.00 0.00 0.00 31 1001.9
20260904014042 80 360 1.0 4.0 0.00 0.00 0.00 31 1001.9
20260904013541 81 48 1.0 4.0 0.00 0.00 0.00 30 1001.9
20260904013041 81 45 3.0 6.0 0.00 0.00 0.00 30 1001.9
20260904012542 82 30 2.0 6.0 0.00 0.00 0.00 30 1001.9
20260904012041 82 32 3.0 8.0 0.00 0.00 0.00 29 1001.9
20260904011541 82 21 3.0 9.0 0.00 0.00 0.00 29 1001.8
20260904011040 83 25 3.0 10.0 0.00 0.00 0.00 29 1001.8
20260904010541 83 360 4.0 10.0 0.00 0.00 0.00 28 1001.9
20260904010042 84 24 4.0 11.0 0.00 0.00 0.00 28 1001.8
20260904005540 84 10 4.0 12.0 0.00 0.00 0.00 27 1001.8
20260904005040 85 10 7.0 12.0 0.00 0.00 0.00 26 1001.9
20260904004540 85 10 5.0 12.0 0.00 0.00 0.00 25 1001.9
20260904004040 85 9 6.0 10.0 0.00 0.00 0.00 24 1001.9
20260904003539 86 9 3.0 6.0 0.00 0.00 0.00 23 1001.9
20260904003048 86 360 2.0 5.0 0.00 0.00 0.00 23 1001.8
20260904002539 86 9 3.0 8.0 0.00 0.00 0.00 22 1001.8
20260904002038 86 5 3.0 8.0 0.00 0.00 0.00 23 1001.8
20260904001539 87 360 2.0 10.0 0.00 0.00 0.00 22 1001.9
20260904001039 87 38 4.0 10.0 0.00 0.00 0.00 21 1001.8
20260904000539 87 349 3.0 11.0 0.00 0.00 0.00 21 1001.8
20260904000042 88 30 5.0 11.0 0.00 0.00 0.00 20 1001.8
20260903235538 89 9 5.0 11.0 0.00 0.00 0.00 20 1001.8
20260903235039 89 29 5.0 12.0 0.00 0.00 0.00 19 1001.8
20260903234537 90 49 7.0 12.0 0.00 0.00 0.00 19 1001.8
20260903234040 90 29 2.0 9.0 0.00 0.00 0.00 19 1001.8
20260903233537 90 44 3.0 9.0 0.00 0.00 0.00 18 1001.8
20260903233038 90 74 5.0 9.0 0.00 0.00 0.00 19 1001.8
20260903232537 90 39 3.0 8.0 0.00 0.00 0.00 18 1001.8
20260903232037 90 34 4.0 10.0 0.00 0.00 0.00 18 1001.8
20260903231537 90 44 4.0 10.0 0.00 0.00 0.00 20 1001.8
20260903231037 90 22 3.0 10.0 0.00 0.00 0.00 21 1001.8
20260903230536 91 31 5.0 11.0 0.00 0.00 0.00 19 1001.9
20260903230048 91 34 4.0 11.0 0.00 0.00 0.00 18 1001.9
20260903225535 91 45 2.0 11.0 0.00 0.00 0.00 18 1001.9
20260903225034 91 49 5.0 11.0 0.00 0.00 0.00 17 1001.9
20260903224533 91 355 1.0 4.0 0.00 0.00 0.00 18 1001.9
20260903224033 91 47 2.0 4.0 0.00 0.00 0.00 18 1001.9
20260903223632 91 18 1.0 5.0 0.00 0.00 0.00 18 1002.0
20260903223030 91 55 1.0 8.0 0.00 0.00 0.00 18 1002.0
20260903222529 91 29 4.0 9.0 0.00 0.00 0.00 17 1002.1
20260903222029 91 32 3.0 7.0 0.00 0.00 0.00 18 1002.3
20260903221527 91 128 3.0 11.0 0.00 0.00 0.00 17 1002.4
20260903221029 91 86 5.0 11.0 0.00 0.00 0.00 18 1002.4
20260903220527 91 57 3.0 9.0 0.00 0.00 0.00 19 1002.4
20260903220025 91 42 5.0 9.0 0.00 0.00 0.00 18 1002.5
20260903215528 91 64 1.0 4.0 0.00 0.00 0.00 17 1002.5
20260903215025 91 98 2.0 10.0 0.00 0.00 0.00 18 1002.5
20260903214536 91 76 4.0 10.0 0.00 0.00 0.00 18 1002.6
20260903214024 91 104 4.0 10.0 0.00 0.00 0.00 18 1002.7
20260903213522 91 75 6.0 11.0 0.00 0.00 0.00 18 1002.7
20260903213022 90 75 4.0 11.0 0.00 0.00 0.00 19 1002.7
20260903212521 90 30 6.0 15.0 0.00 0.00 0.00 18 1002.7
20260903212023 90 67 6.0 15.0 0.00 0.00 0.00 18 1002.8
20260903211519 90 67 4.0 9.0 0.00 0.00 0.00 19 1002.9
20260903211018 90 5 1.0 11.0 0.00 0.00 0.00 19 1002.9
20260903210517 90 46 4.0 13.0 0.00 0.00 0.00 19 1003.0
20260903210018 90 67 7.0 13.0 0.00 0.00 0.00 19 1003.2
20260903205516 89 38 5.0 11.0 0.00 0.00 0.00 20 1003.1
20260903205016 89 55 2.0 11.0 0.00 0.00 0.00 19 1003.2
20260903204514 89 65 5.0 11.0 0.00 0.00 0.00 19 1003.3
20260903204015 89 47 3.0 9.0 0.00 0.00 0.00 19 1003.4
20260903203516 88 34 3.0 14.0 0.00 0.00 0.00 19 1003.4
20260903203012 89 66 6.0 16.0 0.00 0.00 0.00 19 1003.5
20260903202512 89 70 9.0 16.0 0.00 0.00 0.00 19 1003.5
20260903202012 89 5 5.0 12.0 0.00 0.00 0.00 20 1003.5
20260903201512 89 56 7.0 12.0 0.00 0.00 0.00 19 1003.6
20260903201011 88 306 3.0 11.0 0.00 0.00 0.00 22 1003.6
20260903200510 88 128 5.0 11.0 0.00 0.00 0.00 20 1003.6
20260903200009 88 62 4.0 10.0 0.00 0.00 0.00 20 1003.7
20260903195508 88 74 6.0 15.0 0.00 0.00 0.00 20 1003.9
20260903195009 88 118 6.0 15.0 0.00 0.00 0.00 21 1003.9
20260903194507 89 37 4.0 12.0 0.00 0.00 0.00 19 1003.9
20260903194006 88 58 4.0 12.0 0.00 0.00 0.00 20 1004.0
20260903193506 88 69 3.0 11.0 0.00 0.00 0.00 21 1004.1
20260903193005 88 65 8.0 13.0 0.00 0.00 0.00 20 1004.1
20260903192505 88 130 9.0 13.0 0.00 0.00 0.00 20 1004.2
20260903192005 87 50 7.0 15.0 0.00 0.00 0.00 22 1004.3
20260903191504 87 30 5.0 15.0 0.00 0.00 0.00 21 1004.3
20260903191003 88 19 7.0 12.0 0.00 0.00 0.00 23 1004.4
20260903190503 87 40 3.0 10.0 0.00 0.00 0.00 21 1004.4
20260903190002 88 67 4.0 9.0 0.00 0.00 0.00 20 1004.5
20260903185600 88 100 3.0 9.0 0.00 0.00 0.00 21 1004.6
20260903185059 88 73 3.0 10.0 0.00 0.00 0.00 22 1004.6
20260903184600 87 88 4.0 9.0 0.00 0.00 0.00 23 1004.7
20260903184058 86 34 2.0 10.0 0.00 0.00 0.00 24 1004.7
20260903183601 88 79 3.0 10.0 0.00 0.00 0.00 23 1004.6
20260903183057 88 142 0.0 8.0 0.00 0.00 0.00 24 1004.8
20260903182600 87 340 1.0 7.0 0.00 0.00 0.00 23 1004.9
20260903182055 88 88 2.0 7.0 0.00 0.00 0.00 25 1005.0
20260903181604 87 117 2.0 8.0 0.00 0.00 0.00 25 1005.1
20260903181055 86 95 3.0 8.0 0.00 0.00 0.00 25 1005.1
20260903180555 86 88 2.0 4.0 0.00 0.00 0.00 24 1005.2
20260903175554 85 170 1.0 4.0 0.00 0.00 0.00 26 1005.2
20260903175054 85 106 2.0 8.0 0.00 0.00 0.00 25 1005.2
20260903174556 85 355 3.0 8.0 0.00 0.00 0.00 25 1005.3
20260903174053 85 16 2.0 6.0 0.00 0.00 0.00 26 1005.3
20260903173553 85 30 2.0 6.0 0.00 0.00 0.00 24 1005.4
20260903173101 84 69 2.0 7.0 0.00 0.00 0.00 25 1005.4
20260903172557 84 81 3.0 5.0 0.00 0.00 0.00 24 1005.3
20260903172052 86 13 1.0 4.0 0.00 0.00 0.00 26 1005.3
20260903171552 86 122 1.0 6.0 0.00 0.00 0.00 28 1005.3
20260903171051 86 350 1.0 6.0 0.00 0.00 0.00 28 1005.3
20260903170551 87 28 1.0 4.0 0.00 0.00 0.00 30 1005.4
20260903170141 86 5 1.0 4.0 0.00 0.00 0.00 31 1005.4
20260903165550 85 239 1.0 4.0 0.00 0.00 0.00 33 1005.4
20260903165050 86 23 1.0 6.0 0.00 0.00 0.00 33 1005.4
20260903164552 84 255 1.0 6.0 0.00 0.00 0.00 36 1005.4
20260903164050 84 267 1.0 5.0 0.00 0.00 0.00 37 1005.5
20260903163550 85 223 1.0 7.0 0.00 0.00 0.00 35 1005.4
20260903163045 83 234 3.0 7.0 0.00 0.00 0.00 34 1005.2
20260903162548 83 255 3.0 8.0 0.00 0.00 0.00 34 1005.3
20260903162045 84 182 2.0 8.0 0.00 0.00 0.00 30 1005.3
20260903161553 83 248 3.0 10.0 0.00 0.00 0.00 30 1005.3
20260903161042 81 67 2.0 6.0 0.00 0.00 0.00 33 1005.3
20260903160542 81 212 1.0 6.0 0.00 0.00 0.00 35 1005.4
20260903160045 81 360 0.0 6.0 0.00 0.00 0.00 33 1005.3
20260903155542 80 68 3.0 7.0 0.00 0.00 0.00 33 1005.3
20260903155040 80 59 2.0 6.0 0.00 0.00 0.00 32 1005.4
20260903154550 81 213 1.0 4.0 0.00 0.00 0.00 36 1005.2
20260903154039 80 323 1.0 9.0 0.00 0.00 0.00 37 1005.4
20260903153537 79 213 1.0 8.0 0.00 0.00 0.00 40 1005.2
20260903153036 76 57 2.0 8.0 0.00 0.00 0.00 47 1005.4
20260903152534 75 47 3.0 8.0 0.00 0.00 0.00 51 1005.4
20260903152033 73 25 3.0 5.0 0.00 0.00 0.00 54 1005.4
20260903151544 71 46 2.0 6.0 0.00 0.00 0.00 58 1005.6
20260903151133 71 19 4.0 9.0 0.00 0.00 0.00 56 1005.7
20260903150533 73 62 2.0 8.0 0.00 0.00 0.00 52 1005.7
20260903150039 72 61 4.0 8.0 0.00 0.00 0.00 53 1005.7
20260903145529 71 91 3.0 7.0 0.00 0.00 0.00 53 1005.8
20260903145028 69 135 3.0 5.0 0.00 0.00 0.00 61 1005.9
20260903144528 67 67 3.0 5.0 0.00 0.00 0.00 63 1005.8
20260903144028 67 14 2.0 9.0 0.00 0.00 0.00 66 1006.0
20260903143527 69 25 4.0 9.0 0.00 0.00 0.00 61 1006.0
20260903143026 69 97 3.0 8.0 0.00 0.00 0.00 60 1005.8
20260903142524 68 98 3.0 7.0 0.00 0.00 0.00 62 1005.8